Regional Weather Roundup
Issued by NWS Little Rock, AR

Home | Current Version | Previous Version | Graphics & Text | Print | Product List | Glossary On
Versions: 1 2 3 4 5 6 7 8 9 10 11 12 13 14 15 16 17 18 19 20 21 22 23 24 25 26 27 28 29 30 31 32 33 34 35 36 37 38 39 40 41 42 43 44 45 46 47 48 49 50
000
ASUS44 KLZK 031305
RWRLZK

WEATHER ROUNDUP FOR ARKANSAS
NATIONAL WEATHER SERVICE LITTLE ROCK AR
800 AM CDT THU SEP 03 2015

NOTE: "FAIR" INDICATES FEW OR NO CLOUDS BELOW 12,000 FEET WITH NO
SIGNIFICANT WEATHER AND/OR OBSTRUCTIONS TO VISIBILITY.

ARZ001-003-010-029-031400-
NORTHWEST ARKANSAS

CITY           SKY/WX    TMP DP  RH WIND       PRES   REMARKS
FAYETTEVILLE   SUNNY     67  67 100 CALM      30.05R FOG
FORT SMITH     SUNNY     73  67  81 NE6       30.01R
HARRISON       SUNNY     69  67  93 SE3       30.06R
BENTONVILLE    SUNNY     72  64  78 CALM      30.05R
ROGERS         SUNNY     72  67  84 SE6       30.05R
SILOAM SPGS    SUNNY     70  63  78 SE3       30.03R
HIGHFILL       SUNNY     70  68  93 CALM      30.04R
SPRINGDALE     SUNNY     72  66  83 CALM      30.06R
$$

ARZ004-005-016-031400-
NORTH CENTRAL ARKANSAS

CITY           SKY/WX    TMP DP  RH WIND       PRES   REMARKS
BATESVILLE     CLOUDY    70  68  94 CALM      30.04R VSB 1/4
FLIPPIN        SUNNY     66  63  88 CALM      30.03R
MTN HOME       SUNNY     71  67  87 CALM      30.04R
$$

ARZ040-041-031400-
WEST CENTRAL ARKANSAS

CITY           SKY/WX    TMP DP  RH WIND       PRES   REMARKS
MENA           SUNNY     70  68  94 CALM      30.05S
MOUNT IDA      SUNNY     68  66  93 CALM      30.02R FOG
$$

ARZ009-017-025-026-028-031400-
NORTHEAST ARKANSAS

CITY           SKY/WX    TMP DP  RH WIND       PRES   REMARKS
JONESBORO      SUNNY     73  71  93 SE3       30.03R
NEWPORT        SUNNY     76  72  87 CALM      30.04R
WALNUT RIDGE   SUNNY     72  68  88 SW3       30.04R
BLYTHEVILLE    SUNNY     75  73  93 CALM      30.04R
$$

ARZ022-023-033-042-044-031400-
CENTRAL ARKANSAS

CITY           SKY/WX    TMP DP  RH WIND       PRES   REMARKS
LITTLE ROCK    MOSUNNY   75  71  87 CALM      30.03R FOG
N LITTLE ROCK    N/A     75  73  92 SE3       30.03R
JACKSONVILLE   SUNNY     70  69  95 NE1       30.03R
SEARCY         SUNNY     72  71  97 CALM      30.05R
HOT SPRINGS    SUNNY     72  67  84 CALM      30.04R
RUSSELLVILLE   SUNNY     70  69  97 CALM      30.03R
$$

ARZ036-031400-
EAST ARKANSAS

CITY           SKY/WX    TMP DP  RH WIND       PRES   REMARKS
WEST MEMPHIS   MOSUNNY   74  74 100 CALM      30.03R FOG
$$

ARZ050-053-066-070-073-031400-
SOUTHWEST ARKANSAS

CITY           SKY/WX    TMP DP  RH WIND       PRES   REMARKS
ARKADELPHIA    FAIR      72  71  96 NE3       30.03R
CAMDEN         SUNNY     72  66  83 CALM      30.02R FOG
TEXARKANA      SUNNY     72  69  90 SE3       30.02R
EL DORADO      MOSUNNY   70  68  93 CALM      30.03R FOG
DE QUEEN       SUNNY     71  69  93 CALM      30.01R FOG
$$

ARZ056-057-069-031400-
SOUTHEAST ARKANSAS

CITY           SKY/WX    TMP DP  RH WIND       PRES   REMARKS
PINE BLUFF     SUNNY     72  70  93 CALM      30.03R FOG
STUTTGART      SUNNY     73  68  83 CALM      30.03R
MONTICELLO     SUNNY     73  73 100 CALM      30.02R FOG

$$





USA.gov is the U.S. government's official web portal to all federal, state and local government web resources and services.